Details for AirAsia Thailand at VTBD




Go Back


Latest METAR
Local Time

VTBD 180600Z 21009KT 140V290 9999 FEW020 SCT035 32/25 Q1002 NOSIG
18/08/2018, 13:29:17

Description
Results
AirAsia Thailand Logo
Number of Pilots based at VTBD
0 Pilots Based here
Number of AirAsia Thailand Flights Departed from VTBD
0 Flights Departed
Number of AirAsia Thailand Flights Arrived at VTBD
0 Flights Arrived
Number of AirAsia Thailand Schedules Departing from VTBD
166 Schedules
Number of AirAsia Thailand Schedules Arriving at VTBD
166 Schedules
Number of AirAsia Thailand Schedules Departing from VTBD availible today
158 Schedules Today
Number of AirAsia Thailand Schedules Arriving at VTBD availible today
158 Schedules Today
Average Landing Rate at VTBD
0 fpm
AirAsia Thailand Average Landing Rate at VTBD
0 fpm
Total Fuel Purchased at VTBD by AirAsia Thailand
0.00 kgs / 0.00 lbs

Pilots Based at VTBD


Pilot ID
Pilot Name
Pilot Rank
No. of Flights
No. of Flying Hours
There are no pilots assigned to this hub!   Will you be the first?
Content